Weather History for EGLL - May, 2013

Change the Weather History Date:

Wednesday, May 1, 2013

  Actual Average Record
Temperature  
Mean Temperature 50 °F -  
Max Temperature 61 °F 62 °F 73 °F (1997)
Min Temperature 38 °F 47 °F 38 °F (2013)
Degree Days  
Heating Degree Days 16    
Moisture  
Dew Point 35 °F    
Average Humidity 61    
Maximum Humidity 93    
Minimum Humidity 19    
Precipitation  
Precipitation 0.00 in - - ()
Sea Level Pressure  
Sea Level Pressure 30.24 in    
Wind  
Wind Speed 6 mph ()    
Max Wind Speed 9 mph    
Max Gust Speed -    
Visibility 8.3 miles    
Events      
Averages and records for this station are not official NWS values.
T = Trace of Precipitation, MM = Missing Value Source: Averaged Metar Reports

Daily Weather History Graph

Daily Weather History Graph

Search for Another Location

Airport or City:

Trip Planner

Search our weather history database for the weather conditions in past years. The results will help you decide how hot, cold, wet, or windy it might be!

Date:

Astronomy

May. 01, 2013 Rise Set
Actual Time 5:33 AM BST 8:25 PM BST
Civil Twilight 4:55 AM BST 9:03 PM BST
Nautical Twilight 4:06 AM BST 9:53 PM BST
Astronomical Twilight 3:05 AM BST 10:55 PM BST
Moon 1:27 AM BST (5/1) 10:53 AM BST (5/1)
Length of Visible Light 16h 08m
Length of Day
14h 51m
Waning Gibbous, 61% of the Moon is Illuminated
May 1
Waning Gibbous
May 2
Last Quarter
May 10
New
May 18
First Quarter
May 25
Full

Hourly Weather History & Observations

Time (BST) Temp. Windchill Dew Point Humidity Pressure Visibility Wind Dir Wind Speed Gust Speed Precip Events Conditions
12:20 AM 42.8 °F 38.6 °F 35.6 °F 76% 30.33 in - ENE 6.9 mph - N/A   Clear
12:50 AM 43 °F - 36 °F 67% 30.33 in 13 mi NE 6.9 mph - -  
12:50 AM 42.8 °F 40.1 °F 35.6 °F 76% 30.33 in - NE 4.6 mph - N/A   Clear
1:20 AM 42.8 °F 40.1 °F 35.6 °F 76% 30.33 in 6.2 mi NE 4.6 mph - N/A   Unknown
1:50 AM 41.0 °F 37.1 °F 35.6 °F 81% 30.30 in 6.2 mi NE 5.8 mph - N/A   Unknown
2:20 AM 41.0 °F 37.1 °F 35.6 °F 81% 30.30 in 6.2 mi NE 5.8 mph - N/A   Unknown
2:50 AM 39.2 °F 35.0 °F 35.6 °F 87% 30.30 in - NE 5.8 mph - N/A   Clear
3:20 AM 39.2 °F 35.9 °F 35.6 °F 87% 30.30 in - NE 4.6 mph - N/A   Clear
3:50 AM 39 °F - 36 °F 84% 30.30 in 10 mi NE 5.8 mph - -  
3:50 AM 39.2 °F 35.9 °F 35.6 °F 87% 30.30 in 5.6 mi NE 4.6 mph - N/A   Partly Cloudy
4:20 AM 39.2 °F 35.0 °F 35.6 °F 87% 30.30 in 5.6 mi ENE 5.8 mph - N/A   Scattered Clouds
4:50 AM 39.2 °F 35.9 °F 37.4 °F 93% 30.30 in 5.0 mi NE 4.6 mph - N/A   Mostly Cloudy
5:20 AM 41.0 °F 37.1 °F 37.4 °F 87% 30.27 in 5.6 mi NE 5.8 mph - N/A   Mostly Cloudy
5:50 AM 39.2 °F 35.9 °F 37.4 °F 93% 30.27 in 5.0 mi ENE 4.6 mph - N/A   Mostly Cloudy
6:20 AM 41.0 °F 38.0 °F 37.4 °F 87% 30.27 in 5.0 mi NE 4.6 mph - N/A   Mostly Cloudy
6:50 AM 41 °F - 38 °F 85% 30.29 in 7 mi NE 4.6 mph - -  
6:50 AM 41.0 °F 38.0 °F 37.4 °F 87% 30.27 in 5.0 mi NE 4.6 mph - N/A   Mostly Cloudy
7:20 AM 41.0 °F 37.1 °F 39.2 °F 93% 30.27 in 5.6 mi ENE 5.8 mph - N/A   Mostly Cloudy
7:50 AM 42.8 °F 39.3 °F 39.2 °F 87% 30.27 in 5.6 mi NE 5.8 mph - N/A   Mostly Cloudy
8:20 AM 42.8 °F 39.3 °F 39.2 °F 87% 30.30 in 5.0 mi NE 5.8 mph - N/A   Mostly Cloudy
8:50 AM 42.8 °F 40.1 °F 39.2 °F 87% 30.30 in 5.6 mi NE 4.6 mph - N/A   Mostly Cloudy
9:20 AM 42.8 °F 39.3 °F 39.2 °F 87% 30.30 in 5.6 mi NNE 5.8 mph - N/A   Mostly Cloudy
9:50 AM 46 °F - 40 °F 72% 30.30 in 8 mi North 4.6 mph - -   Partly Cloudy
9:50 AM 46.4 °F 43.5 °F 39.2 °F 76% 30.30 in 5.6 mi North 5.8 mph - N/A   Scattered Clouds
10:20 AM 48.2 °F - 41.0 °F 76% 30.30 in 6.2 mi Variable 5.8 mph - N/A   Partly Cloudy
10:50 AM 50.0 °F - 41.0 °F 71% 30.27 in - Variable 4.6 mph - N/A   Clear
11:20 AM 51.8 °F - 39.2 °F 62% 30.27 in - NE 4.6 mph - N/A   Clear
11:50 AM 53.6 °F - 39.2 °F 58% 30.24 in - NE 6.9 mph - N/A   Clear
12:20 PM 57.2 °F - 39.2 °F 51% 30.24 in - NNE 6.9 mph - N/A   Clear
12:50 PM 57 °F - 33 °F 28% 30.22 in 19 mi NNE 6.9 mph - -  
12:50 PM 57.2 °F - 37.4 °F 48% 30.21 in - ENE 5.8 mph - N/A   Clear
1:20 PM 59.0 °F - 33.8 °F 39% 30.21 in 6.2 mi ENE 8.1 mph - N/A   Partly Cloudy
1:50 PM 59.0 °F - 32.0 °F 36% 30.21 in - ENE 5.8 mph - N/A   Clear
2:20 PM 59.0 °F - 32.0 °F 36% 30.21 in - Variable 5.8 mph - N/A   Clear
2:50 PM 60.8 °F - 33.8 °F 36% 30.18 in - North 6.9 mph - N/A   Clear
3:20 PM 60.8 °F - 32.0 °F 34% 30.18 in - NE 8.1 mph - N/A   Clear
3:50 PM 60 °F - 31 °F 22% 30.19 in 19 mi NNE 8.1 mph - -  
3:50 PM 60.8 °F - 33.8 °F 36% 30.18 in - NNE 8.1 mph - N/A   Clear
4:20 PM 60.8 °F - 33.8 °F 36% 30.18 in - NNE 9.2 mph - N/A   Clear
4:50 PM 60.8 °F - 32.0 °F 34% 30.18 in - NNE 8.1 mph - N/A   Clear
5:20 PM 60.8 °F - 32.0 °F 34% 30.18 in - NNE 9.2 mph - N/A   Clear
5:50 PM 60.8 °F - 32.0 °F 34% 30.18 in - NNE 8.1 mph - N/A   Clear
6:20 PM 59.0 °F - 30.2 °F 34% 30.18 in - NNE 9.2 mph - N/A   Clear
6:50 PM 59 °F - 28 °F 19% 30.18 in 19 mi NNE 8.1 mph - -  
6:50 PM 59.0 °F - 28.4 °F 31% 30.18 in - NE 8.1 mph - N/A   Clear
7:20 PM 57.2 °F - 28.4 °F 33% 30.18 in - NNE 8.1 mph - N/A   Clear
7:50 PM 57.2 °F - 26.6 °F 31% 30.18 in - NNE 8.1 mph - N/A   Clear
8:20 PM 55.4 °F - 26.6 °F 33% 30.18 in - NNE 6.9 mph - N/A   Clear
8:50 PM 53.6 °F - 33.8 °F 47% 30.18 in - East 8.1 mph - N/A   Clear
9:20 PM 50.0 °F - 33.8 °F 54% 30.21 in - East 6.9 mph - N/A   Clear
9:50 PM 49 °F - 34 °F 44% 30.23 in 19 mi East 9.2 mph - -  
9:50 PM 48.2 °F - 33.8 °F 58% 30.21 in - East 9.2 mph - N/A   Clear
10:20 PM 48.2 °F - 32.0 °F 54% 30.21 in - East 8.1 mph - N/A   Clear
10:50 PM 46.4 °F 42.9 °F 32.0 °F 57% 30.21 in - SE 6.9 mph - N/A   Clear
11:20 PM 44.6 °F 40.7 °F 32.0 °F 61% 30.21 in - ESE 6.9 mph - N/A   Clear
11:50 PM 44.6 °F 43.1 °F 32.0 °F 61% 30.21 in - East 3.5 mph - N/A   Clear